Location: Lugrin
(46.4033°N, 6.6674°E)
Time: 07:41:40
(UTC+00:00)

Tsikada Rocket - Pass Details

Date: 20 January 2021
Orbit: 957 x 1009 km, 82.9° (Epoch: 04 March)

Event Time Altitude Azimuth Distance (km) Brightness Sun altitude
Rises 16:53:52 0° 194° (SSW) 3,706 7.6 -6.0°
Reaches altitude 10° 16:56:25 10° 196° (SSW) 2,754 7.0 -6.4°
Maximum altitude 17:02:43 70° 280° (W) 1,046 4.4 -7.5°
Drops below altitude 10° 17:08:59 10° 5° (N) 2,736 6.1 -8.5°
Sets 17:11:31 0° 7° (N) 3,680 6.7 -8.9°
